Back to catalog

STARLINK-11441

AliveCommunicationsVLEO
NORAD 62413·PAYLOAD·🇺🇸 United States

Launched Dec 23, 2024 from Cape Canaveral Space Force Station

Loading…

Next Passes (next 24 hours)

TLE

FreshSource: CelesTrak SupGP

Epoch: Sep 14, 2026, 22:21 UTC

1 62413C 24249E   26257.93173611  .00003454  00000+0  26839-4 0  2574
2 62413  43.0006 106.6802 0001699 262.4859 208.3418 15.70827450    11

Track STARLINK-11441 in real time with AllMySat

Download on the App Store